CPA101 VHHH-YSSY

Flight info

Callsign CPA101
Flight time N/A
Altitude 37000
Route DALOL V652 SABNO A583 ZAM A461 AMN R340 SURVO Y161 OVNOM H652 BOREE
Aircraft B77W/H-SDE1E2E3FGHIJ2J3J4J5M1RWXY/LB1D1

Departure

Time N/A
Airport Hong Kong International Airport (VHHH)

Arrival

Time 2026-04-26 07:52
Airport Sydney Kingsford Smith International Airport (YSSY)
Time Latitude Longitude Altitude Speed Heading
2026-04-26 05:56 -22.64345 143.14877 37047 ft 504 kts 145°
2026-04-26 05:57 -22.69622 143.19884 37061 ft 504 kts 145°
2026-04-26 05:57 -22.74885 143.24883 37062 ft 504 kts 145°
2026-04-26 05:58 -22.80120 143.29860 37055 ft 504 kts 144°
2026-04-26 05:58 -22.85397 143.34885 37059 ft 503 kts 144°
2026-04-26 05:59 -22.90653 143.39894 37061 ft 503 kts 144°
2026-04-26 05:59 -22.95919 143.44916 37058 ft 503 kts 144°
2026-04-26 06:00 -23.01175 143.49936 37059 ft 503 kts 144°
2026-04-26 06:00 -23.06428 143.54958 37058 ft 503 kts 144°
2026-04-26 06:01 -23.11678 143.59983 37058 ft 503 kts 144°
2026-04-26 06:01 -23.16924 143.65009 37063 ft 503 kts 144°
2026-04-26 06:02 -23.22133 143.70005 37067 ft 503 kts 144°
2026-04-26 06:02 -23.27387 143.75050 37060 ft 503 kts 144°
2026-04-26 06:03 -23.32631 143.80091 37062 ft 502 kts 144°
2026-04-26 06:03 -23.37867 143.85130 37060 ft 502 kts 144°
2026-04-26 06:04 -23.43100 143.90171 37063 ft 502 kts 144°
2026-04-26 06:04 -23.48331 143.95216 37063 ft 502 kts 144°
2026-04-26 06:05 -23.53533 144.00238 37060 ft 502 kts 144°
2026-04-26 06:05 -23.58773 144.05303 37064 ft 502 kts 144°
2026-04-26 06:06 -23.64005 144.10366 37060 ft 502 kts 144°
2026-04-26 06:06 -23.69228 144.15425 37063 ft 502 kts 144°
2026-04-26 06:07 -23.74415 144.20455 37064 ft 502 kts 144°
2026-04-26 06:07 -23.79635 144.25524 37066 ft 502 kts 144°
2026-04-26 06:08 -23.84855 144.30597 37063 ft 502 kts 144°
2026-04-26 06:08 -23.90080 144.35682 37065 ft 502 kts 144°
2026-04-26 06:09 -23.95299 144.40766 37074 ft 502 kts 143°
2026-04-26 06:09 -24.00517 144.45855 37073 ft 503 kts 143°
2026-04-26 06:10 -24.05735 144.50949 37069 ft 503 kts 143°
2026-04-26 06:10 -24.10951 144.56048 37069 ft 503 kts 143°
2026-04-26 06:11 -24.16138 144.61125 37075 ft 503 kts 143°
2026-04-26 06:11 -24.21354 144.66235 37075 ft 503 kts 143°
2026-04-26 06:12 -24.26569 144.71352 37078 ft 503 kts 143°
2026-04-26 06:12 -24.31788 144.76479 37074 ft 503 kts 143°
2026-04-26 06:13 -24.36836 144.81821 37077 ft 506 kts 140°
2026-04-26 06:13 -24.41785 144.87326 37074 ft 506 kts 140°
2026-04-26 06:14 -24.46731 144.92799 37077 ft 506 kts 140°
2026-04-26 06:14 -24.51691 144.98232 37077 ft 506 kts 140°
2026-04-26 06:15 -24.56682 145.03683 37076 ft 506 kts 140°
2026-04-26 06:15 -24.61679 145.09147 37078 ft 506 kts 140°
2026-04-26 06:16 -24.66662 145.14607 37082 ft 507 kts 140°
2026-04-26 06:16 -24.71630 145.20058 37079 ft 507 kts 140°
2026-04-26 06:17 -24.76617 145.25537 37077 ft 507 kts 140°
2026-04-26 06:17 -24.81629 145.31050 37083 ft 508 kts 140°
2026-04-26 06:18 -24.86627 145.36554 37085 ft 508 kts 140°
2026-04-26 06:18 -24.91602 145.42039 37085 ft 509 kts 140°
2026-04-26 06:19 -24.96607 145.47564 37091 ft 509 kts 140°
2026-04-26 06:19 -25.01614 145.53098 37078 ft 510 kts 140°
2026-04-26 06:20 -25.06626 145.58645 37097 ft 510 kts 140°
2026-04-26 06:20 -25.11625 145.64185 37087 ft 510 kts 140°
2026-04-26 06:21 -25.16634 145.69741 37092 ft 510 kts 140°
2026-04-26 06:21 -25.21608 145.75266 37101 ft 510 kts 139°
2026-04-26 06:22 -25.26608 145.80828 37092 ft 510 kts 139°
2026-04-26 06:22 -25.31614 145.86404 37095 ft 510 kts 139°
2026-04-26 06:23 -25.36616 145.91978 37096 ft 511 kts 139°
2026-04-26 06:23 -25.41619 145.97556 37099 ft 511 kts 139°
2026-04-26 06:24 -25.46622 146.03142 37097 ft 511 kts 139°
2026-04-26 06:24 -25.51622 146.08733 37095 ft 511 kts 139°
2026-04-26 06:25 -25.56626 146.14335 37104 ft 511 kts 139°
2026-04-26 06:25 -25.61590 146.19901 37094 ft 511 kts 139°
2026-04-26 06:26 -25.66587 146.25511 37096 ft 511 kts 139°
2026-04-26 06:26 -25.71588 146.31132 37103 ft 511 kts 139°
2026-04-26 06:27 -25.76585 146.36755 37099 ft 512 kts 139°
2026-04-26 06:27 -25.81582 146.42386 37101 ft 512 kts 139°
2026-04-26 06:28 -25.86578 146.48024 37093 ft 512 kts 139°
2026-04-26 06:28 -25.91585 146.53680 37097 ft 512 kts 138°
2026-04-26 06:29 -25.96557 146.59304 37098 ft 512 kts 138°
2026-04-26 06:29 -26.01562 146.64973 37104 ft 512 kts 138°
2026-04-26 06:30 -26.06558 146.70640 37107 ft 512 kts 138°
2026-04-26 06:30 -26.11548 146.76306 37105 ft 513 kts 138°
2026-04-26 06:31 -26.16503 146.81941 37114 ft 512 kts 138°
2026-04-26 06:31 -26.21494 146.87623 37101 ft 512 kts 138°
2026-04-26 06:32 -26.26480 146.93306 37112 ft 512 kts 138°
2026-04-26 06:32 -26.31457 146.98987 37119 ft 512 kts 138°
2026-04-26 06:33 -26.35591 147.03712 37115 ft 512 kts 137°
2026-04-26 06:33 -26.41367 147.10322 37117 ft 511 kts 137°
2026-04-26 06:34 -26.46327 147.16008 37118 ft 511 kts 137°
2026-04-26 06:34 -26.51290 147.21702 37117 ft 511 kts 137°
2026-04-26 06:35 -26.55408 147.26433 37117 ft 511 kts 137°
2026-04-26 06:35 -26.60361 147.32130 37125 ft 510 kts 137°
2026-04-26 06:36 -26.65308 147.37829 37120 ft 510 kts 137°
2026-04-26 06:36 -26.70240 147.43517 37121 ft 510 kts 137°
2026-04-26 06:37 -26.75179 147.49220 37119 ft 510 kts 137°
2026-04-26 06:37 -26.80082 147.54891 37126 ft 510 kts 137°
2026-04-26 06:38 -26.85009 147.60597 37122 ft 509 kts 137°
2026-04-26 06:38 -26.89934 147.66307 37122 ft 509 kts 137°
2026-04-26 06:39 -26.94855 147.72021 37127 ft 509 kts 137°
2026-04-26 06:39 -26.99777 147.77743 37126 ft 509 kts 136°
2026-04-26 06:40 -27.04705 147.83481 37130 ft 509 kts 136°
2026-04-26 06:40 -27.09608 147.89197 37127 ft 509 kts 136°
2026-04-26 06:41 -27.14486 147.94891 37127 ft 509 kts 136°
2026-04-26 06:41 -27.19382 148.00614 37127 ft 508 kts 136°
2026-04-26 06:42 -27.24295 148.06366 37129 ft 508 kts 136°
2026-04-26 06:42 -27.29189 148.12102 37130 ft 508 kts 136°
2026-04-26 06:43 -27.34410 148.17343 37139 ft 503 kts 147°
2026-04-26 06:43 -27.40328 148.21472 37131 ft 499 kts 155°
2026-04-26 06:44 -27.46493 148.25059 37132 ft 499 kts 156°
2026-04-26 06:44 -27.52675 148.28654 37129 ft 499 kts 156°
2026-04-26 06:45 -27.58840 148.32297 37129 ft 499 kts 155°
2026-04-26 06:45 -27.64941 148.35929 37135 ft 499 kts 155°
2026-04-26 06:46 -27.71081 148.39590 37135 ft 499 kts 155°
2026-04-26 06:46 -27.77225 148.43255 37134 ft 499 kts 155°
2026-04-26 06:47 -27.83358 148.46917 37135 ft 498 kts 155°
2026-04-26 06:47 -27.89493 148.50585 37137 ft 498 kts 155°
2026-04-26 06:48 -27.95573 148.54226 37139 ft 497 kts 155°
2026-04-26 06:48 -28.01681 148.57887 37141 ft 497 kts 155°
2026-04-26 06:49 -28.07522 148.62123 37135 ft 501 kts 144°
2026-04-26 06:49 -28.12915 148.67113 37146 ft 500 kts 143°
2026-04-26 06:50 -28.18278 148.72141 37141 ft 500 kts 143°
2026-04-26 06:50 -28.23663 148.77138 37141 ft 499 kts 143°
2026-04-26 06:51 -28.29025 148.82085 37146 ft 499 kts 143°
2026-04-26 06:51 -28.37099 148.89536 37152 ft 498 kts 143°
2026-04-26 06:52 -28.42465 148.94501 37150 ft 497 kts 143°
2026-04-26 06:52 -28.47791 148.99437 37152 ft 496 kts 143°
2026-04-26 06:53 -28.53150 149.04410 37150 ft 496 kts 143°
2026-04-26 06:53 -28.58492 149.09374 37151 ft 495 kts 142°
2026-04-26 06:54 -28.63819 149.14330 37148 ft 494 kts 142°
2026-04-26 06:54 -28.69105 149.19256 37143 ft 493 kts 142°
2026-04-26 06:55 -28.74412 149.24207 37149 ft 493 kts 142°
2026-04-26 06:55 -28.79712 149.29159 37155 ft 492 kts 142°
2026-04-26 06:56 -28.85007 149.34113 37154 ft 492 kts 142°
2026-04-26 06:56 -28.90299 149.39071 37153 ft 492 kts 142°
2026-04-26 06:57 -28.95593 149.44034 37154 ft 492 kts 142°
2026-04-26 06:57 -29.00891 149.49002 37151 ft 493 kts 142°
2026-04-26 06:58 -29.06191 149.53981 37152 ft 493 kts 142°
2026-04-26 06:58 -29.11487 149.58964 37155 ft 494 kts 142°
2026-04-26 06:59 -29.16796 149.63968 37151 ft 494 kts 142°
2026-04-26 06:59 -29.22064 149.68939 37151 ft 494 kts 142°
2026-04-26 07:00 -29.27366 149.73949 37153 ft 494 kts 142°
2026-04-26 07:00 -29.32664 149.78962 37144 ft 494 kts 142°
2026-04-26 07:01 -29.37953 149.83974 37152 ft 493 kts 142°
2026-04-26 07:01 -29.43239 149.88990 37156 ft 492 kts 142°
2026-04-26 07:02 -29.48510 149.94000 37145 ft 492 kts 142°
2026-04-26 07:02 -29.53742 149.98979 37151 ft 491 kts 142°
2026-04-26 07:03 -29.58993 150.03983 37152 ft 490 kts 142°
2026-04-26 07:03 -29.64433 150.08650 37146 ft 486 kts 153°
2026-04-26 07:04 -29.70573 150.11775 37155 ft 481 kts 166°
2026-04-26 07:04 -29.77039 150.13720 37160 ft 480 kts 168°
2026-04-26 07:05 -29.83534 150.15577 37155 ft 480 kts 168°
2026-04-26 07:05 -29.90002 150.17475 37158 ft 480 kts 168°
2026-04-26 07:06 -29.96441 150.19406 37162 ft 481 kts 167°
2026-04-26 07:06 -30.02924 150.21362 37169 ft 481 kts 167°
2026-04-26 07:07 -30.09401 150.23318 37168 ft 481 kts 167°
2026-04-26 07:07 -30.15886 150.25277 37173 ft 481 kts 167°
2026-04-26 07:08 -30.22358 150.27233 37171 ft 481 kts 167°
2026-04-26 07:08 -30.28842 150.29196 37171 ft 481 kts 167°
2026-04-26 07:09 -30.35278 150.31148 37172 ft 480 kts 167°
2026-04-26 07:09 -30.41751 150.33113 37178 ft 480 kts 167°
2026-04-26 07:11 -30.57895 150.38026 37175 ft 479 kts 167°
2026-04-26 07:11 -30.64347 150.39994 37170 ft 479 kts 167°
2026-04-26 07:12 -30.70765 150.41955 37172 ft 479 kts 167°
2026-04-26 07:12 -30.77204 150.43925 37174 ft 478 kts 167°
2026-04-26 07:13 -30.83638 150.45896 37173 ft 478 kts 167°
2026-04-26 07:13 -30.90073 150.47868 37175 ft 477 kts 167°
2026-04-26 07:14 -30.96503 150.49841 37177 ft 477 kts 167°
2026-04-26 07:14 -31.02923 150.51814 37183 ft 477 kts 167°
2026-04-26 07:15 -31.09305 150.53778 37185 ft 477 kts 167°
2026-04-26 07:15 -31.15720 150.55756 37179 ft 477 kts 167°
2026-04-26 07:16 -31.22139 150.57737 37178 ft 476 kts 167°
2026-04-26 07:16 -31.28557 150.59721 37185 ft 476 kts 167°
2026-04-26 07:17 -31.34929 150.61694 37177 ft 476 kts 167°
2026-04-26 07:17 -31.41336 150.63680 37183 ft 476 kts 167°
2026-04-26 07:18 -31.47747 150.65670 37199 ft 476 kts 167°
2026-04-26 07:18 -31.54149 150.67660 37190 ft 476 kts 166°
2026-04-26 07:19 -31.60552 150.69654 37201 ft 476 kts 166°
2026-04-26 07:19 -31.66954 150.71649 37207 ft 476 kts 166°
2026-04-26 07:20 -31.73356 150.73648 37210 ft 476 kts 166°
2026-04-26 07:20 -31.79766 150.75652 37208 ft 476 kts 166°
2026-04-26 07:21 -31.86132 150.77646 37214 ft 476 kts 166°
2026-04-26 07:21 -31.92535 150.79654 37213 ft 476 kts 166°
2026-04-26 07:22 -31.98939 150.81665 37219 ft 476 kts 166°
2026-04-26 07:22 -32.05380 150.83507 37213 ft 475 kts 172°
2026-04-26 07:23 -32.11926 150.84647 37228 ft 475 kts 173°
2026-04-26 07:23 -32.17370 150.85537 37219 ft 475 kts 173°
2026-04-26 07:24 -32.25024 150.86840 36430 ft 486 kts 172°
2026-04-26 07:24 -32.28369 150.87423 35707 ft 485 kts 172°
2026-04-26 07:24 -32.31710 150.88009 34844 ft 486 kts 172°
2026-04-26 07:24 -32.33935 150.88400 34291 ft 486 kts 172°
2026-04-26 07:25 -32.37275 150.88986 33276 ft 487 kts 172°
2026-04-26 07:25 -32.40632 150.89574 32303 ft 487 kts 172°
2026-04-26 07:25 -32.43990 150.90163 31328 ft 487 kts 172°
2026-04-26 07:25 -32.48420 150.90940 30276 ft 483 kts 172°
2026-04-26 07:26 -32.50661 150.91333 29736 ft 480 kts 172°
2026-04-26 07:26 -32.53944 150.91917 28998 ft 474 kts 171°
2026-04-26 07:26 -32.57186 150.92500 28339 ft 468 kts 171°
2026-04-26 07:26 -32.60356 150.93072 27681 ft 464 kts 171°
2026-04-26 07:27 -32.63524 150.93644 27029 ft 459 kts 171°
2026-04-26 07:27 -32.66669 150.94211 26396 ft 455 kts 171°
2026-04-26 07:27 -32.69788 150.94774 25771 ft 451 kts 171°
2026-04-26 07:27 -32.72889 150.95333 25154 ft 448 kts 171°
2026-04-26 07:28 -32.75964 150.95887 24528 ft 446 kts 170°
2026-04-26 07:28 -32.79023 150.96439 23897 ft 444 kts 170°
2026-04-26 07:28 -32.82070 150.96984 23170 ft 442 kts 170°
2026-04-26 07:28 -32.85112 150.97523 22535 ft 438 kts 171°
2026-04-26 07:29 -32.88082 150.98049 21914 ft 435 kts 171°
2026-04-26 07:29 -32.91061 150.98576 21308 ft 431 kts 171°
2026-04-26 07:29 -32.94015 150.99100 20716 ft 427 kts 171°
2026-04-26 07:29 -32.96946 150.99621 20131 ft 424 kts 171°
2026-04-26 07:30 -32.99857 151.00139 19546 ft 422 kts 171°
2026-04-26 07:30 -33.02751 151.00655 18961 ft 419 kts 171°
2026-04-26 07:30 -33.05631 151.01169 18340 ft 418 kts 170°
2026-04-26 07:30 -33.08499 151.01680 17685 ft 415 kts 170°
2026-04-26 07:31 -33.11347 151.02189 17077 ft 412 kts 171°
2026-04-26 07:31 -33.14175 151.02695 16479 ft 409 kts 171°
2026-04-26 07:31 -33.16988 151.03198 15902 ft 407 kts 171°
2026-04-26 07:31 -33.19784 151.03698 15313 ft 404 kts 171°
2026-04-26 07:32 -33.22557 151.04195 14744 ft 402 kts 171°
2026-04-26 07:32 -33.25280 151.04690 14183 ft 400 kts 170°
2026-04-26 07:32 -33.28021 151.05214 13629 ft 397 kts 170°
2026-04-26 07:32 -33.30734 151.05739 13057 ft 394 kts 170°
2026-04-26 07:33 -33.33434 151.06259 12514 ft 391 kts 170°
2026-04-26 07:33 -33.36104 151.06771 12025 ft 385 kts 170°
2026-04-26 07:33 -33.38734 151.07275 11602 ft 379 kts 170°
2026-04-26 07:33 -33.41303 151.07767 11428 ft 365 kts 170°
2026-04-26 07:34 -33.43771 151.08240 11328 ft 351 kts 170°
2026-04-26 07:34 -33.46138 151.08694 11231 ft 338 kts 170°
2026-04-26 07:34 -33.48418 151.09132 11150 ft 326 kts 170°
2026-04-26 07:34 -33.50587 151.09549 11072 ft 314 kts 169°
2026-04-26 07:35 -33.52710 151.09958 10987 ft 303 kts 170°
2026-04-26 07:35 -33.54751 151.10352 10875 ft 293 kts 170°
2026-04-26 07:35 -33.56739 151.10736 10748 ft 283 kts 169°
2026-04-26 07:35 -33.58646 151.11103 10205 ft 275 kts 170°
2026-04-26 07:36 -33.60546 151.11470 9406 ft 276 kts 170°
2026-04-26 07:36 -33.62435 151.11838 8866 ft 273 kts 170°
2026-04-26 07:36 -33.64286 151.12203 8737 ft 268 kts 170°
2026-04-26 07:36 -33.66133 151.12569 8586 ft 270 kts 170°
2026-04-26 07:37 -33.68004 151.12939 8441 ft 274 kts 170°
2026-04-26 07:37 -33.69887 151.13311 8266 ft 275 kts 170°
2026-04-26 07:37 -33.71766 151.13678 8098 ft 274 kts 171°
2026-04-26 07:37 -33.73647 151.14042 7944 ft 273 kts 171°
2026-04-26 07:38 -33.75517 151.14404 7772 ft 272 kts 171°
2026-04-26 07:38 -33.77384 151.14766 7610 ft 271 kts 171°
2026-04-26 07:38 -33.79239 151.15126 7452 ft 269 kts 171°
2026-04-26 07:38 -33.81060 151.15428 7281 ft 264 kts 179°
2026-04-26 07:39 -33.82855 151.15087 7135 ft 262 kts 195°
2026-04-26 07:39 -33.84641 151.14526 6996 ft 268 kts 194°
2026-04-26 07:39 -33.86459 151.13977 6834 ft 270 kts 194°
2026-04-26 07:39 -33.88280 151.13438 6669 ft 269 kts 194°
2026-04-26 07:40 -33.90098 151.12907 6497 ft 268 kts 193°
2026-04-26 07:40 -33.91910 151.12383 6331 ft 267 kts 194°
2026-04-26 07:40 -33.93714 151.11862 6172 ft 266 kts 194°
2026-04-26 07:40 -33.95503 151.11346 6073 ft 261 kts 194°
2026-04-26 07:41 -33.97266 151.10837 6026 ft 260 kts 194°
2026-04-26 07:41 -33.99008 151.10334 6000 ft 261 kts 194°
2026-04-26 07:41 -34.00789 151.09819 5973 ft 265 kts 194°
2026-04-26 07:41 -34.02617 151.09290 5634 ft 270 kts 194°
2026-04-26 07:42 -34.04421 151.08770 5519 ft 261 kts 194°
2026-04-26 07:42 -34.06151 151.08270 5432 ft 251 kts 194°
2026-04-26 07:42 -34.07813 151.07826 5339 ft 238 kts 186°
2026-04-26 07:42 -34.09421 151.07974 5152 ft 229 kts 169°
2026-04-26 07:43 -34.10972 151.08399 4849 ft 229 kts 168°
2026-04-26 07:43 -34.12503 151.08829 4667 ft 222 kts 168°
2026-04-26 07:43 -34.13974 151.09241 4489 ft 218 kts 168°
2026-04-26 07:43 -34.15480 151.09661 4348 ft 220 kts 168°
2026-04-26 07:44 -34.16950 151.10068 4228 ft 221 kts 168°
2026-04-26 07:44 -34.18451 151.10483 4090 ft 219 kts 168°
2026-04-26 07:44 -34.19920 151.10884 3949 ft 213 kts 167°
2026-04-26 07:44 -34.21258 151.11597 3814 ft 214 kts 136°
2026-04-26 07:45 -34.22024 151.13091 3767 ft 208 kts 100°
2026-04-26 07:45 -34.21963 151.14777 3676 ft 199 kts 73°
2026-04-26 07:45 -34.21589 151.16387 3559 ft 200 kts 70°
2026-04-26 07:45 -34.21190 151.18006 3433 ft 200 kts 70°
2026-04-26 07:46 -34.20640 151.19497 3313 ft 192 kts 45°
2026-04-26 07:46 -34.19546 151.20287 3249 ft 186 kts 14°
2026-04-26 07:46 -34.18273 151.20652 3179 ft 190 kts 13°
2026-04-26 07:46 -34.17003 151.21034 3093 ft 186 kts 13°
2026-04-26 07:47 -34.15772 151.21408 3023 ft 179 kts 13°
2026-04-26 07:47 -34.14577 151.21771 3006 ft 176 kts 13°
2026-04-26 07:47 -34.13382 151.22107 3005 ft 177 kts
2026-04-26 07:47 -34.12170 151.22019 3029 ft 178 kts 353°
2026-04-26 07:48 -34.10933 151.21806 2890 ft 181 kts 351°
2026-04-26 07:48 -34.09703 151.21520 2640 ft 178 kts 349°
2026-04-26 07:48 -34.08504 151.21213 2418 ft 173 kts 349°
2026-04-26 07:48 -34.07382 151.20919 2176 ft 155 kts 350°
2026-04-26 07:49 -34.06394 151.20660 1983 ft 137 kts 351°
2026-04-26 07:49 -34.05477 151.20422 1846 ft 134 kts 351°
2026-04-26 07:49 -34.04552 151.20183 1641 ft 136 kts 351°
2026-04-26 07:50 -34.02728 151.19706 1279 ft 133 kts 352°
2026-04-26 07:50 -34.01820 151.19469 1107 ft 135 kts 351°
2026-04-26 07:50 -34.00908 151.19232 935 ft 133 kts 351°
2026-04-26 07:50 -33.99992 151.18992 767 ft 135 kts 351°
2026-04-26 07:51 -33.99069 151.18752 575 ft 134 kts 351°
2026-04-26 07:51 -33.98150 151.18509 388 ft 136 kts 350°
2026-04-26 07:51 -33.97236 151.18270 225 ft 135 kts 349°
2026-04-26 07:51 -33.96326 151.18034 54 ft 135 kts 348°
2026-04-26 07:52 -33.95466 151.17816 34 ft 113 kts 347°
2026-04-26 07:52 -33.94936 151.17677 34 ft 53 kts 348°
2026-04-26 07:52 -33.94602 151.17590 35 ft 42 kts 347°
2026-04-26 07:52 -33.94326 151.17518 35 ft 39 kts 348°
2026-04-26 07:53 -33.94072 151.17452 31 ft 32 kts 348°
2026-04-26 07:53 -33.93947 151.17415 31 ft 13 kts 326°
2026-04-26 07:53 -33.93950 151.17310 33 ft 13 kts 255°
2026-04-26 07:53 -33.93956 151.17287 33 ft 0 kts 255°
2026-04-26 07:55 -33.93964 151.17250 34 ft 8 kts 255°
2026-04-26 07:55 -33.93979 151.17186 34 ft 8 kts 254°
2026-04-26 07:55 -33.93998 151.17107 34 ft 11 kts 253°
2026-04-26 07:55 -33.94019 151.17018 35 ft 11 kts 254°
2026-04-26 07:56 -33.94042 151.16927 35 ft 11 kts 253°
2026-04-26 07:56 -33.94051 151.16840 35 ft 11 kts 274°
2026-04-26 07:56 -33.94019 151.16757 35 ft 11 kts 301°
2026-04-26 07:56 -33.94009 151.16738 35 ft 2 kts 304°
2026-04-26 07:57 -33.94001 151.16724 35 ft 3 kts 304°
2026-04-26 07:57 -33.93989 151.16702 35 ft 4 kts 303°
2026-04-26 07:57 -33.93977 151.16680 35 ft 1 kts 303°
2026-04-26 07:57 -33.93977 151.16679 35 ft 0 kts 303°